Regional Weather Roundup
Issued by NWS

Home | Current Version | Previous Version | Graphics & Text | Print | Product List | Glossary On
Versions: 1 2 3 4 5 6 7 8 9 10 11 12 13 14 15 16 17 18 19 20 21 22 23 24 25 26 27 28 29 30 31 32 33 34 35 36 37 38 39 40 41 42 43 44 45 46 47 48 49 50
301
ASUS45 KTFX 252210
RWRMT
MONTANA REGIONAL WEATHER ROUNDUP
NATIONAL WEATHER SERVICE GREAT FALLS MT
400 PM MDT TUE APR 25 2017

NOTE: "FAIR" INDICATES FEW OR NO CLOUDS BELOW 12000 FEET WITH NO
SIGNIFICANT WEATHER AND/OR OBSTRUCTIONS TO VISIBILITY.

MTZ001>007-043-252300-
WEST OF THE DIVIDE

CITY           SKY/WX    TMP DP  RH WIND       PRES   REMARKS
KALISPELL      CLOUDY    46  40  79 NE9       29.81R
MISSOULA       MOSUNNY   51  38  60 VRB3      29.84F
BUTTE          CLOUDY    48  23  37 NW14G23   29.81S
MULLAN PASS    SNOW      33  33 100 VRB6      29.84S VSB 1/4 WCI  28
ANACONDA         N/A     46  25  42 W15       29.83R
DEER LODGE       N/A     48  25  40 W8        29.83S
EUREKA           N/A     54  30  40 W9        29.77F
HAMILTON         N/A     48  32  53 NW9       29.84S
PLAINS           N/A     52  36  54 NE1       29.85F
$$

MTZ008-052>055-252300-
SOUTHWEST MONTANA

CITY           SKY/WX    TMP DP  RH WIND       PRES   REMARKS
BOZEMAN        MOSUNNY   51  37  58 CALM      29.79F
DILLON         MOSUNNY   51  29  42 SW9       29.78F
W YELLOWSTONE  CLOUDY    36  32  87 SE6       29.81S WCI  31
THREE FORKS      N/A     53   9  17 CALM      29.80S
TWIN BRIDGES     N/A     52  29  41 S10       29.81R
$$

MTZ009-010-012-014-046-048-049-054-252300-
EAST SLOPES AND CENTRAL MONTANA

CITY           SKY/WX    TMP DP  RH WIND       PRES   REMARKS
CUT BANK       LGT SNOW  34  33  96 N14       29.83R FOG     WCI  25
GREAT FALLS    MOSUNNY   47  40  76 NE10      29.78F
MALMSTROM AFB  PTSUNNY   45  43  93 NE13      29.79F
HELENA         SUNNY     58  26  29 W14G31    29.76R
AUGUSTA        PTSUNNY   47  37  68 E7        29.76S
BOWMANS CRNR     N/A     48  33  56 S6        29.74F
CHOTEAU          N/A     43  36  75 N22       29.80R
FAIRFIELD        N/A     47  38  72 E9        29.76R
POWER          LGT RAIN  42  40  92 E12       29.76F
RAYNESFORD     LGT RAIN  41  38  91 N7        29.81R
ULM              N/A     46  41  81 NE13      29.78R
$$

MTZ011-013-016-021-045-047-050-051-252300-
NORTH CENTRAL MONTANA

CITY           SKY/WX    TMP DP  RH WIND       PRES   REMARKS
HAVRE          CLOUDY    48  33  56 E18       29.81F
LEWISTOWN      SUNNY     45  35  68 E14       29.80F
CHINOOK          N/A     45  28  53 E17G23    29.85F
DENTON         CLOUDY    46  36  68 MISG      29.77S
FORT BENTON      N/A     48  37  66 MISG      29.80S
GEYSER         RAIN      44  38  78 S13G20    29.78R
GRASS RANGE    CLOUDY    38  34  86 E10       29.81F WCI  31
JUDITH GAP     CLOUDY    36  33  88 S14G22    29.82S WCI  27
STANFORD       LGT RAIN  42  37  84 S16       29.80R
WINIFRED         N/A     45  33  61 E20G25    29.80F
$$

MTZ017>020-022>027-061-062-252300-
NORTHEAST MONTANA

CITY           SKY/WX    TMP DP  RH WIND       PRES   REMARKS
GLASGOW        CLOUDY    43  25  49 E12       29.93F
JORDAN           N/A     39  26  59 E9        29.91F
SIDNEY         CLOUDY    39  24  55 NE12      29.95S WCI  32
WOLF POINT     CLOUDY    45  24  43 E9        29.94F
PLENTYWOOD       N/A     37  23  56 NE8       29.96S WCI  31
POPLAR           N/A     43  21  42 NE12G17   29.95S
SCOBEY           N/A     38  21  50 NE6       29.94F
$$

MTZ028>42-056>058-252300-
SOUTHCENTRAL AND SOUTHEAST MONTANA

CITY           SKY/WX    TMP DP  RH WIND       PRES   REMARKS
BAKER          CLOUDY    32  24  72 NE10      29.90S WCI  24
BILLINGS       CLOUDY    38  30  73 E8        29.87F
LIVINGSTON     CLOUDY    48  36  63 NE8       29.79S
MILES CITY     CLOUDY    37  25  61 NE8       29.91F WCI  31
BIG TIMBER     PTSUNNY   45  37  76 E10       29.83F
EKALAKA          N/A     27  23  84 N9        29.86R WCI  18
LAUREL           N/A     38  26  62 NE3       29.87F
ROUNDUP          N/A     38  27  65 N3        29.80S
$$

REGIONAL REPORTS...DAKOTAS

CITY           SKY/WX    TMP DP  RH WIND       PRES   REMARKS
WILLISTON      CLOUDY    42  24  49 NE12      29.96F
MINOT          CLOUDY    43  26  51 N17       29.91S
DICKINSON      CLOUDY    30  23  75 N14       29.89S WCI  19
BEACH          PTSUNNY   36  25  64 NE13      29.93S WCI  27
TIOGA          CLOUDY    36  28  75 NE15      29.95F WCI  26
WATFORD CITY   CLOUDY    37  25  60 N13G18    29.94S WCI  29
BISMARCK       CLOUDY    35  26  69 N15G21    29.92R WCI  25
GRAND FORKS    CLOUDY    38  29  70 N22G31    29.84R WCI  27
FARGO          CLOUDY    39  31  72 N25G32    29.76R WCI  28
BUFFALO SD       N/A     29  27  92 N16       29.80R WCI  17
RAPID CITY     LGT SNOW  29  25  85 N20       29.82R VSB 1   WCI  16
$$

REGIONAL REPORTS...WYOMING/IDAHO/WASHINGTON

CITY           SKY/WX    TMP DP  RH WIND       PRES   REMARKS
GILLETTE       LGT SNOW  29  29 100 N16       29.81S WCI  17
SHERIDAN       CLOUDY    35  30  82 NW9       29.86S HAZE    WCI  28
CODY           PTSUNNY   42  32  67 NW12      29.81F
YELLOWSTONE LA   N/A     38  23  55 NW8       29.80S
IDAHO FALLS    PTSUNNY   52  39  61 SW10      29.81S
SALMON         PTSUNNY   54  30  40 N7        29.81F
BOISE          PTSUNNY   55  31  39 W12       29.91F
SPOKANE        LGT RAIN  50  42  74 S5        29.85F
$$

REGIONAL REPORTS...ALBERTA

CITY           SKY/WX    TMP DP  RH WIND       PRES   REMARKS
EDMONTON       MIX PCPN  34  32  93 SE3       29.94S
CALGARY        CLOUDY    34  25  69 N12       29.86F WCI  25
LETHBRIDGE     CLOUDY    37  34  87 NW13      29.85S WCI  29
MEDICINE HAT   LGT RAIN  37  36  93 W2        29.86F FOG
CARDSTON         N/A     36  32  87 N9          N/A  WCI  29
MILK RIVER       N/A     39  36  87 NW13        N/A  WCI  32
$$

REGIONAL REPORTS...SASKATCHEWAN

CITY           SKY/WX    TMP DP  RH WIND       PRES   REMARKS
SWIFT CURRENT  CLOUDY    34  25  69 SE13      29.94F WCI  25
REGINA         MOSUNNY   36  21  55 NE6       30.03S WCI  31
SASKATOON      CLOUDY    37  19  48 E10G20    30.07F WCI  30
CYPRESS HILLS    N/A     30  28  93 SE10        N/A  WCI  21
ASSINIBOIA       N/A     36  32  87 SE9         N/A  WCI  29
$$




USA.gov is the U.S. government's official web portal to all federal, state and local government web resources and services.